Weather in Imatra

Finland     61°10′14″N   28°46′18″E
temp.,
°C
wind,
m/s
gust,
m/s
humid.,
%
clouds,
%
prec.,
mm/h
press.,
hPa
HPBL,
m
24 october, sun
sun2400:00+1n5879100 0.1 1013780
03:00+1nnw5785100 0.1 1016694
06:000nnw58867 0.0 1018494
09:00−1nnw578332 0.0 1020459
12:000nnw3569100 0.0 1022587
15:00+1wnw3462100 0.0 1023838
18:00+1wsw347096 0.0 1023467
21:000ssw467599 0.0 1022322
25 october, mon
mon2500:00+1s61194100 0.1 1021482
03:00+5ssw71496100 3.8 1017896
06:00+6sw81496100 2.8 1013702
09:00+7sw71395100 4.3 1011591
12:00+8sw91590100 0.7 1011770
15:00+8wsw9148487 1.4 1011825
18:00+8wsw71385100 0.0 1011836
21:00+7wsw71284100 0.1 1010822
26 october, tue
tue2600:00+7wsw71284100 0.1 1010722
03:00+7sw51186100 0.1 1010594
06:00+7sw51092100 0.0 1009560
09:00+7sw5994100 0.1 1008546
12:00+7sw61091100 0.1 1008671
15:00+7sw61094100 0.4 1007512
18:00+7ssw51096100 0.1 1007476
21:00+8ssw61096100 0.2 1006404
27 october, wed
wed2700:00+8sw51097100 0.2 1005461
03:00+8sw5995100 1.4 1004372
06:00+7w61092100 0.9 1004477
09:00+7w61089100 1.0 1004483
12:00+7wnw798599 0.0 1005733
15:00+6wnw7985100 0.1 1007996
18:00+6wnw7982100 0.1 1008979
21:00+6wnw4782100 0.1 1009490
28 october, thu
thu2800:00+6ssw3485100 0.0 1009163
03:00+5sse3692100 0.0 1008210
06:00+6ese4797100 1.4 1007269
09:00+6e5894100 3.1 1007845
12:00+5e71093100 1.6 1010892
15:00+4e71191100 2.2 1013688
18:00+3e71179100 0.0 1017601
21:00+2e6108272 0.0 1019560